KC8QDR-1 Weather Reports


time (UTC)temp
C
wind
direction
speed
KPH
gust
KPH
rain 1hr
cm
rain 24hr
cm
rain mn
cm
humidity
%
barometer
mb
20260508035845 4 0 0.0 0.0 0.00 0.00 0.00 94 1017.3
20260508034845 4 0 0.0 0.0 0.00 0.00 0.00 93 1017.3
20260508033845 4 0 0.0 0.0 0.00 0.00 0.00 91 1017.3
20260508032844 4 0 0.0 0.0 0.00 0.00 0.00 92 1017.3
20260508031845 4 0 0.0 0.0 0.00 0.00 0.00 91 1017.4
20260508030845 4 0 0.0 0.0 0.00 0.00 0.00 90 1017.5
20260508025845 4 0 0.0 0.0 0.00 0.00 0.00 89 1017.7
20260508024844 4 0 0.0 0.0 0.00 0.00 0.00 87 1017.3
20260508023845 5 0 0.0 0.0 0.00 0.00 0.00 88 1017.2
20260508022844 5 0 0.0 0.0 0.00 0.00 0.00 85 1016.9
20260508022026 5 0 0.0 0.0 0.00 0.00 0.00 82 1016.6
20260508021845 5 0 0.0 0.0 0.00 0.00 0.00 82 1016.6
20260508020845 5 0 0.0 0.0 0.00 0.00 0.00 79 1016.1
20260508015845 5 0 0.0 0.0 0.00 0.00 0.00 79 1015.6
20260508014845 6 0 0.0 0.0 0.00 0.00 0.00 76 1015.4
20260508014245 7 0 0.0 0.0 0.00 0.00 0.00 72 1015.3
20260508014110 7 0 0.0 0.0 0.00 0.00 0.00 72 1015.3
20260508013920 7 0 0.0 0.0 0.00 0.00 0.00 72 1015.3
20260508013845 7 0 0.0 0.0 0.00 0.00 0.00 72 1015.3
20260508012844 7 0 0.0 0.0 0.00 0.00 0.00 69 1015.5
20260508012132 8 0 0.0 0.0 0.00 0.00 0.00 62 1015.9
20260508012008 8 0 0.0 0.0 0.00 0.00 0.00 62 1015.9
20260508011845 8 0 0.0 0.0 0.00 0.00 0.00 62 1015.9
20260508010844 9 0 0.0 0.0 0.00 0.00 0.00 57 1016.2
20260508005845 10 0 0.0 4.8 0.00 0.00 0.00 53 1016.7
20260508004846 10 0 0.0 4.8 0.00 0.00 0.00 50 1017.1
20260508003845 10 247 0.0 9.7 0.00 0.00 0.00 49 1017.4
20260508002845 11 0 0.0 12.9 0.00 0.00 0.00 48 1017.5
20260508001845 11 40 4.8 16.1 0.00 0.00 0.00 48 1017.6
20260508000844 11 358 9.7 9.7 0.00 0.00 0.00 48 1017.7
20260507235845 11 254 3.2 14.5 0.00 0.00 0.00 47 1017.7
20260507234844 11 266 8.0 20.9 0.00 0.00 0.00 45 1017.7
20260507233845 11 297 3.2 16.1 0.00 0.00 0.00 47 1017.5
20260507232846 11 328 4.8 19.3 0.00 0.00 0.00 45 1017.5
20260507231846 12 338 0.0 17.7 0.00 0.00 0.00 49 1017.3
20260507230845 12 272 0.0 11.3 0.00 0.00 0.00 52 1017.2
20260507225845 12 0 0.0 17.7 0.00 0.00 0.00 51 1017.3
20260507224845 12 167 1.6 19.3 0.00 0.00 0.00 50 1017.2
20260507223845 12 268 8.0 17.7 0.00 0.00 0.00 54 1017.3
20260507222845 12 220 6.4 16.1 0.00 0.00 0.00 56 1017.2
20260507221845 12 242 6.4 14.5 0.00 0.00 0.00 54 1017.1
20260507220844 12 18 3.2 16.1 0.00 0.00 0.00 59 1017.2
20260507215845 12 279 6.4 25.7 0.00 0.00 0.00 57 1017.2
20260507214844 12 295 6.4 24.1 0.00 0.00 0.00 56 1017.4
20260507213845 12 19 12.9 19.3 0.00 0.00 0.00 59 1017.5
20260507212844 12 337 8.0 16.1 0.00 0.00 0.00 55 1017.6
20260507211845 12 40 6.4 19.3 0.00 0.00 0.00 55 1017.8
20260507210847 12 316 8.0 20.9 0.00 0.00 0.00 53 1017.9
20260507204847 13 12 12.9 20.9 0.00 0.00 0.00 50 1018.0
20260507203845 13 262 6.4 14.5 0.00 0.00 0.00 53 1018.0
20260507202844 13 295 6.4 12.9 0.00 0.00 0.00 49 1018.0
20260507201845 15 348 12.9 11.3 0.00 0.00 0.00 49 1017.9
20260507200846 13 266 9.7 14.5 0.00 0.00 0.00 51 1018.1
20260507195845 13 5 9.7 17.7 0.00 0.00 0.00 51 1018.3
20260507194845 13 259 3.2 20.9 0.00 0.00 0.00 51 1018.5
20260507193845 14 46 3.2 16.1 0.00 0.00 0.00 51 1018.5
20260507192844 14 0 0.0 12.9 0.00 0.00 0.00 54 1018.5
20260507190844 13 333 4.8 9.7 0.00 0.00 0.00 54 1018.3
20260507185847 13 293 11.3 17.7 0.00 0.00 0.00 53 1018.1
20260507184844 13 357 8.0 22.5 0.00 0.00 0.00 50 1017.9
20260507183845 13 0 0.0 16.1 0.00 0.00 0.00 53 1017.8
20260507182844 14 304 6.4 8.0 0.00 0.00 0.00 49 1017.6
20260507181845 15 280 6.4 12.9 0.00 0.00 0.00 51 1017.5
20260507180844 14 214 0.0 12.9 0.00 0.00 0.00 45 1017.5
20260507175845 15 220 1.6 11.3 0.00 0.00 0.00 49 1017.3
20260507174844 15 282 8.0 12.9 0.00 0.00 0.00 43 1017.4
20260507173845 15 136 4.8 14.5 0.00 0.00 0.00 46 1017.3
20260507172844 13 200 4.8 14.5 0.00 0.00 0.00 47 1017.4
20260507171845 13 248 0.0 11.3 0.00 0.00 0.00 47 1017.6
20260507170844 13 173 1.6 8.0 0.00 0.00 0.00 52 1017.8
20260507165845 13 266 3.2 12.9 0.00 0.00 0.00 49 1017.8
20260507164844 14 228 1.6 12.9 0.00 0.00 0.00 47 1017.7
20260507163845 15 39 1.6 12.9 0.00 0.00 0.00 46 1017.7
20260507162844 14 0 3.2 12.9 0.00 0.00 0.00 51 1017.8
20260507161847 13 225 1.6 12.9 0.00 0.00 0.00 47 1017.8
20260507160845 13 344 4.8 8.0 0.00 0.00 0.00 47 1017.9
20260507155852 14 90 3.2 14.5 0.00 0.00 0.00 48 1018.0
20260507154844 14 189 8.0 12.9 0.00 0.00 0.00 48 1018.0
20260507153845 14 172 8.0 16.1 0.00 0.00 0.00 46 1018.0
20260507150844 12 313 8.0 12.9 0.00 0.00 0.00 56 1018.0
20260507145845 12 335 17.7 4.8 0.00 0.00 0.00 54 1018.0
20260507144847 12 173 1.6 9.7 0.00 0.00 0.00 54 1018.1
20260507143845 12 359 3.2 6.4 0.00 0.00 0.00 53 1018.1
20260507142844 12 242 4.8 16.1 0.00 0.00 0.00 52 1018.1
20260507141845 12 268 1.6 14.5 0.00 0.00 0.00 55 1018.1
20260507140844 13 323 4.8 6.4 0.00 0.00 0.00 54 1018.2
20260507135845 13 335 3.2 11.3 0.00 0.00 0.00 57 1018.2
20260507134847 13 265 3.2 9.7 0.00 0.00 0.00 59 1018.3
20260507133845 13 184 6.4 8.0 0.00 0.00 0.00 60 1018.4
20260507132844 12 221 1.6 9.7 0.00 0.00 0.00 66 1018.5
20260507131845 12 235 0.0 6.4 0.00 0.00 0.00 68 1018.5
20260507130844 11 197 1.6 6.4 0.00 0.00 0.00 73 1018.3
20260507125845 11 286 0.0 8.0 0.00 0.00 0.00 75 1018.3
20260507124844 10 163 4.8 8.0 0.00 0.00 0.00 81 1018.4
20260507123846 9 203 4.8 9.7 0.00 0.00 0.00 83 1018.3
20260507122845 8 203 3.2 6.4 0.00 0.00 0.00 84 1018.1
20260507121845 7 172 6.4 6.4 0.00 0.00 0.00 89 1018.1
20260507121002 6 191 3.2 4.8 0.00 0.00 0.00 92 1018.2
20260507120844 6 191 3.2 4.8 0.00 0.00 0.00 92 1018.2
20260507114844 5 173 3.2 6.4 0.00 0.00 0.00 97 1018.3
20260507113845 4 0 0.0 0.0 0.00 0.00 0.00 97 1018.3
20260507112844 4 0 0.0 0.0 0.00 0.00 0.00 97 1018.2
20260507111845 3 0 0.0 0.0 0.00 0.00 0.00 97 1018.1
20260507110846 3 0 0.0 0.0 0.00 0.00 0.00 97 1018.0
20260507105845 3 0 0.0 0.0 0.00 0.00 0.00 97 1017.9
20260507104844 3 0 0.0 0.0 0.00 0.00 0.00 97 1017.8
20260507103845 3 0 0.0 0.0 0.00 0.00 0.00 97 1017.7
20260507102844 3 0 0.0 0.0 0.00 0.03 0.00 97 1017.7
20260507102012 3 0 0.0 0.0 0.00 0.05 0.00 97 1017.7
20260507101845 3 0 0.0 0.0 0.00 0.05 0.00 97 1017.7
20260507100844 3 0 0.0 0.0 0.00 0.08 0.00 97 1017.5
20260507095845 3 0 0.0 0.0 0.00 0.08 0.00 97 1017.6
20260507093845 3 0 0.0 0.0 0.00 0.20 0.00 97 1017.6
20260507092847 3 0 0.0 0.0 0.00 0.25 0.00 97 1017.7
20260507091845 3 0 0.0 0.0 0.00 0.25 0.00 97 1017.7
20260507090844 3 0 0.0 0.0 0.00 0.25 0.00 97 1017.7
20260507085845 3 0 0.0 0.0 0.00 0.30 0.00 97 1017.8
20260507084844 3 0 0.0 0.0 0.00 0.36 0.00 97 1017.8
20260507083845 3 0 0.0 0.0 0.00 0.41 0.00 97 1017.8
20260507082844 2 0 0.0 0.0 0.00 0.43 0.00 96 1017.9
20260507081845 3 0 0.0 0.0 0.00 0.53 0.00 96 1017.9
20260507080844 3 0 0.0 0.0 0.00 0.61 0.00 96 1018.0
20260507075845 3 0 0.0 0.0 0.00 0.66 0.00 96 1018.0
20260507074844 3 0 0.0 0.0 0.00 0.76 0.00 96 1018.0
20260507073845 3 0 0.0 0.0 0.00 0.84 0.00 96 1018.0
20260507072844 3 0 0.0 0.0 0.00 0.89 0.00 95 1018.0
20260507071845 3 0 0.0 0.0 0.00 0.94 0.00 95 1018.0
20260507065845 3 0 0.0 0.0 0.00 1.07 0.00 95 1018.1
20260507064844 4 0 0.0 0.0 0.00 1.12 0.00 95 1018.1
20260507063845 4 0 0.0 0.0 0.00 1.17 0.00 95 1018.2
20260507062844 4 0 0.0 0.0 0.00 1.24 0.00 94 1018.3
20260507060844 5 0 0.0 0.0 0.00 1.35 0.00 91 1018.4
20260507055845 5 0 0.0 0.0 0.00 1.35 0.00 91 1018.5
20260507054846 6 0 0.0 0.0 0.00 1.40 0.00 91 1018.7
20260507053845 6 0 0.0 0.0 0.00 1.42 0.00 91 1019.2
20260507052847 6 0 0.0 0.0 0.00 1.45 0.00 91 1019.2
20260507052024 6 0 0.0 0.0 0.00 1.47 0.00 90 1019.2
20260507051846 6 0 0.0 0.0 0.00 1.47 0.00 90 1019.2
20260507050844 6 0 0.0 0.0 0.00 1.47 0.00 88 1019.4
20260507045845 6 0 0.0 0.0 0.00 1.50 0.00 89 1019.4
20260507044845 6 0 0.0 0.0 0.00 1.52 0.00 89 1019.5
20260507043845 6 0 0.0 0.0 0.00 1.52 0.00 89 1019.7
20260507042844 6 0 0.0 0.0 0.00 1.60 0.00 87 1019.8
20260507041847 6 0 0.0 0.0 0.00 1.63 0.00 88 1020.0
20260507040844 6 0 0.0 0.0 0.00 1.68 0.00 86 1020.2